+ View the NASA Portal
+ Center for Near-Earth Object Studies
IMPORTANT:
The SSD Announcement email list is now available. Major changes are coming in the near future, including possible hostname and/or URL changes. To be notified of such changes, subscribe to this email list.
Please visit
this page
for more details.
Don't show this message again
JPL Small-Body Database Browser
Search:
[
help
]
437537 (2013 YE117)
Classification:
Main-belt Asteroid
SPK-ID:
2437537
[
Ephemeris
|
Orbit Diagram
|
Orbital Elements
|
Mission Design
|
Physical Parameters
|
Discovery Circumstances
]
[ show orbit diagram ]
Orbital Elements at Epoch 2458600.5 (2019-Apr-27.0) TDB
Reference:
JPL 16
(heliocentric ecliptic J2000)
Element
Value
Uncertainty (1-sigma)
Units
e
.07304184016248916
6.271e-08
a
2.598952877027619
4.4772e-08
au
q
2.409120576393927
1.6295e-07
au
i
8.273279191316435
7.0393e-06
deg
node
108.059425857593
4.4881e-05
deg
peri
342.8217158531082
6.5842e-05
deg
M
126.2182599714369
5.1005e-05
deg
t
p
2458063.943176086833
(2017-Nov-06.44317609)
0.00021121
TDB
period
1530.368558815915
4.19
3.9545e-05
1.083e-07
d
yr
n
.235237451740737
6.0786e-09
deg/d
Q
2.788785177661312
4.8042e-08
au
Orbit Determination Parameters
# obs. used (total)
109
data-arc span
3854 days (10.55 yr)
first obs. used
2008-10-21
last obs. used
2019-05-11
planetary ephem.
DE431
SB-pert. ephem.
SB431-N16
condition code
0
norm. resid. RMS
.55245
source
ORB
producer
Otto Matic
solution date
2019-May-30 10:10:01
Additional Information
Earth MOID
= 1.42716 au
Jupiter MOID
= 2.3428 au
T_jup
= 3.397
[ show covariance matrix ]
[
Ephemeris
|
Orbit Diagram
|
Orbital Elements
|
Mission Design
|
Physical Parameters
|
Discovery Circumstances
]
Physical Parameter Table
Parameter
Symbol
Value
Units
Sigma
Reference
Notes
absolute magnitude
H
17.0
n/a
MPO434611
437537 (2013 YE117)
Discovered 2008-Oct-21 by Mt. Lemmon Survey at Mount Lemmon
Reference:
Last Updated:
2015-06-04
[
Ephemeris
|
Orbit Diagram
|
Orbital Elements
|
Mission Design
|
Physical Parameters
|
Discovery Circumstances
]
2019-Dec-15 05:39 UT
(server date/time)
Site Manager:
Ryan S. Park
Webmaster
:
Alan B. Chamberlin